Flag for U.S.A. Weather past 2 weeks in Grand Junction, Colorado, U.S.A.

Now
65 °F

Sunny.


Feels Like: 65 °F
Forecast: 43 / 70 °F
Wind: 6 mph from South

Location: Walker Field

Current Time: Oct 23, 2014 at 1:27:25 PM

Latest Report: Oct 23, 2014 at 12:53 PM


Visibility: 10 mi

Pressure: 30.12 "Hg

Humidity: 37%

Dew point: 38 °F

Location of Grand JunctionLocation

Historic Weather in Grand Junction — Graph

°F

Grand Junction temperature yesterday

Maximum temperature yesterday: 68 °F (at 3:53 PM)
Minimum temperature yesterday: 42 °F (at 4:53 AM)
Average temperature yesterday: 54 °F

Past Weeks' High & Low Weather Summary

 TemperatureHumidityPressure
High75 °F (Oct 19, 3:53 PM)97% (Oct 10, 12:53 AM)30.29 "Hg (Oct 10, 12:53 AM)
Low33 °F (Oct 13, 6:53 AM)23% (Oct 11, 5:53 PM)26.58 "Hg (Oct 16, 11:20 PM)
Average55 °F55%29.98 "Hg
* Reported Oct 8 11:53 AM — Oct 23 11:53 AM, Grand Junction, Weather by CustomWeather, © 2014

Note: Actual official high and low records may vary slightly from our data, if they occured in-between our weather recording intervals... More about our weather records

Advertising

Grand Junction weather history for previous 24 hours

 ConditionsComfort  
Time TempWeatherWind HumidityBarometerVisibility
11:53 AM
Oct 23
63 °FSunny.8 mph40%30.14 "Hg10 mi
10:53 AM60 °FSunny.7 mph46%30.17 "Hg10 mi
9:53 AM55 °FSunny.8 mph59%30.17 "Hg10 mi
8:53 AM48 °FSunny.6 mph71%30.20 "Hg10 mi
7:53 AM43 °FClear.6 mph79%30.18 "Hg10 mi
6:53 AM43 °FClear.12 mph82%30.14 "Hg10 mi
5:53 AM43 °FClear.3 mph79%30.12 "Hg10 mi
4:53 AM44 °FClear.5 mph76%30.10 "Hg10 mi
3:53 AM44 °FClear.5 mph76%30.09 "Hg10 mi
2:53 AM44 °FClear.5 mph76%30.09 "Hg10 mi
1:53 AM46 °FClear.12 mph71%30.06 "Hg10 mi
12:53 AM47 °FClear.12 mph71%30.07 "Hg10 mi
11:53 PM
Oct 22
47 °FClear.3 mph69%30.08 "Hg10 mi
10:53 PM48 °FClear.3 mph66%30.08 "Hg10 mi
9:53 PM53 °FClear.8 mph59%30.07 "Hg10 mi
8:53 PM50 °FClear.3 mph59%30.09 "Hg10 mi
7:53 PM51 °FClear.8 mph59%30.07 "Hg10 mi
6:53 PM57 °FSunny.5 mph49%30.04 "Hg10 mi
5:53 PM65 °FSunny.8 mph39%30.00 "Hg10 mi
4:53 PM68 °FSunny.6 mph38%29.99 "Hg10 mi
3:53 PM68 °FSunny.6 mph40%29.98 "Hg10 mi
2:53 PM67 °FSunny.6 mph44%29.98 "Hg10 mi
1:53 PM67 °FSunny.6 mph45%29.99 "Hg10 mi
Weather by CustomWeather, © 2014

See weather overviewHow to use our weather pages